Fairbanks Eiels, AK

8:10 PM AKDT on June 25, 2017 (GMT -0800)
Eielson Air Force Base

Weather History for PAEI - November, 2011

Change the Weather History Date:

Monday, November 7, 2011

  Actual Average Record
Temperature  
Mean Temperature 10 °F -  
Max Temperature 14 °F 13 °F 41 °F (1952)
Min Temperature 6 °F -2 °F -36 °F (1956)
Degree Days  
Heating Degree Days 55    
Moisture  
Dew Point 7 °F    
Average Humidity 83    
Maximum Humidity 86    
Minimum Humidity 78    
Precipitation  
Precipitation 0.01 in - - ()
Sea Level Pressure  
Sea Level Pressure 29.65 in    
Wind  
Wind Speed 4 mph (SSW)    
Max Wind Speed 10 mph    
Max Gust Speed -    
Visibility 5 miles    
Events Snow    
Averages and records for this station are not official NWS values.
T = Trace of Precipitation, MM = Missing Value Source: NWS Daily Summary

Daily Weather History Graph

Daily Weather History Graph

Search for Another Location

Airport or City:

Trip Planner

Search our weather history database for the weather conditions in past years. The results will help you decide how hot, cold, wet, or windy it might be!

Date:

Astronomy

Nov. 07, 2011 Rise Set
Actual Time 8:54 AM AKST 4:08 PM AKST
Civil Twilight 7:57 AM AKST 5:05 PM AKST
Nautical Twilight 6:57 AM AKST 6:05 PM AKST
Astronomical Twilight 6:00 AM AKST 7:01 PM AKST
Moon 3:01 PM AKST (11/7) 5:19 AM AKST (11/7)
Length of Visible Light 9h 08m
Length of Day
7h 13m
Waxing Gibbous, 92% of the Moon is Illuminated
Nov 7
Waxing Gibbous
Nov 10
Full
Nov 18
Last Quarter
Nov 24
New
Dec 2
First Quarter

Hourly Weather History & Observations

Time (AKST) Temp. Windchill Dew Point Humidity Pressure Visibility Wind Dir Wind Speed Gust Speed Precip Events Conditions
12:10 AM 14.0 °F 8.2 °F 10.4 °F 86% 29.34 in 10.0 mi Variable 3.5 mph - N/A   Overcast
12:14 AM 14.0 °F 6.5 °F 10.4 °F 86% 29.34 in 10.0 mi Variable 4.6 mph - N/A Snow Light Snow
12:21 AM 14.0 °F 6.5 °F 10.4 °F 86% 29.34 in 10.0 mi Variable 4.6 mph - N/A Snow Light Snow
12:27 AM 14.0 °F 5.1 °F 10.4 °F 86% 29.34 in 10.0 mi Variable 5.8 mph - N/A Snow Light Snow
12:35 AM 14.0 °F 6.5 °F 10.4 °F 86% 29.35 in 6.0 mi Variable 4.6 mph - N/A Snow Light Snow
12:40 AM 14.0 °F - 10.4 °F 86% 29.35 in 4.0 mi Calm Calm - N/A Snow Light Snow
12:52 AM 14.0 °F - 10.4 °F 86% 29.36 in 3.0 mi Calm Calm - N/A Snow Light Snow
12:55 AM 13.5 °F - 9.9 °F 86% 29.37 in 3.0 mi Calm Calm - 0.00 in Snow Light Snow
1:01 AM 14.0 °F 6.5 °F 10.4 °F 86% 29.37 in 3.0 mi Variable 4.6 mph - N/A Snow Light Snow
1:03 AM 14.0 °F 6.5 °F 10.4 °F 86% 29.37 in 4.0 mi Variable 4.6 mph - N/A Snow Light Snow
1:08 AM 14.0 °F 5.1 °F 10.4 °F 86% 29.38 in 5.0 mi Variable 5.8 mph - N/A Snow Light Snow
1:11 AM 14.0 °F 5.1 °F 10.4 °F 86% 29.38 in 4.0 mi Variable 5.8 mph - N/A Snow Light Snow
1:14 AM 14.0 °F 6.5 °F 10.4 °F 86% 29.38 in 3.0 mi Variable 4.6 mph - N/A Snow Light Snow
1:16 AM 14.0 °F 5.1 °F 10.4 °F 86% 29.39 in 2.5 mi Variable 5.8 mph - N/A Snow Light Snow
1:18 AM 14.0 °F 5.1 °F 8.6 °F 79% 29.39 in 2.5 mi Variable 5.8 mph - N/A Snow Light Snow
1:20 AM 14.0 °F 5.1 °F 8.6 °F 79% 29.39 in 2.5 mi Variable 5.8 mph - N/A Snow Light Snow
1:24 AM 12.2 °F 0.7 °F 8.6 °F 85% 29.40 in 2.5 mi SW 8.1 mph - N/A Snow Light Snow
1:28 AM 12.2 °F 0.7 °F 8.6 °F 85% 29.40 in 2.5 mi WSW 8.1 mph - N/A Snow Light Snow
1:33 AM 12.2 °F 1.7 °F 8.6 °F 85% 29.41 in 2.5 mi Variable 6.9 mph - N/A Snow Light Snow
1:34 AM 12.2 °F 2.9 °F 8.6 °F 85% 29.41 in 2.5 mi Variable 5.8 mph - N/A Snow Light Snow
1:41 AM 12.2 °F -0.2 °F 8.6 °F 85% 29.42 in 2.5 mi SW 9.2 mph - N/A Snow Light Snow
1:42 AM 12.2 °F 0.7 °F 8.6 °F 85% 29.42 in 2.5 mi SW 8.1 mph - N/A Snow Light Snow
1:45 AM 12.2 °F -1.0 °F 8.6 °F 85% 29.42 in 3.0 mi WSW 10.4 mph - N/A Snow Light Snow
1:52 AM 12.2 °F -1.0 °F 8.6 °F 85% 29.42 in 2.5 mi WSW 10.4 mph - N/A Snow Light Snow
1:55 AM 12.0 °F -0.4 °F 7.9 °F 83% 29.43 in 2.5 mi WSW 9.2 mph - 0.00 in Snow Light Snow
1:56 AM 12.2 °F -0.2 °F 8.6 °F 85% 29.43 in 2.5 mi WSW 9.2 mph - N/A Snow Light Snow
1:57 AM 12.2 °F 0.7 °F 8.6 °F 85% 29.43 in 2.5 mi WSW 8.1 mph - N/A Snow Light Snow
1:58 AM 12.2 °F 1.7 °F 8.6 °F 85% 29.43 in 2.5 mi Variable 6.9 mph - N/A Snow Light Snow
2:00 AM 12.2 °F 2.9 °F 8.6 °F 85% 29.44 in 3.0 mi Variable 5.8 mph - N/A Snow Light Snow
2:01 AM 12.2 °F 0.7 °F 8.6 °F 85% 29.44 in 3.0 mi SW 8.1 mph - N/A Snow Light Snow
2:06 AM 12.2 °F 0.7 °F 6.8 °F 79% 29.44 in 3.0 mi SW 8.1 mph - N/A Snow Light Snow
2:25 AM 10.4 °F -0.4 °F 6.8 °F 85% 29.46 in 4.0 mi Variable 6.9 mph - N/A Snow Light Snow
2:37 AM 10.4 °F 0.8 °F 6.8 °F 85% 29.46 in 6.0 mi Variable 5.8 mph - N/A Snow Light Snow
2:42 AM 10.4 °F -1.5 °F 6.8 °F 85% 29.47 in 6.0 mi WSW 8.1 mph - N/A Snow Light Snow
2:52 AM 10.4 °F - 5.0 °F 79% 29.47 in 4.0 mi Calm Calm - N/A Snow Light Snow
2:55 AM 10.6 °F 1.0 °F 5.7 °F 81% 29.47 in 4.0 mi Variable 5.8 mph - 0.00 in Snow Light Snow
3:06 AM 10.4 °F 0.8 °F 5.0 °F 79% 29.48 in 4.0 mi Variable 5.8 mph - N/A Snow Light Snow
3:16 AM 10.4 °F 0.8 °F 5.0 °F 79% 29.48 in 5.0 mi Variable 5.8 mph - N/A Snow Light Snow
3:18 AM 10.4 °F -0.4 °F 5.0 °F 79% 29.48 in 5.0 mi Variable 6.9 mph - N/A Snow Light Snow
3:31 AM 10.4 °F - 5.0 °F 79% 29.48 in 5.0 mi Calm Calm - N/A Snow Light Snow
3:44 AM 10.4 °F 4.0 °F 5.0 °F 79% 29.49 in 6.0 mi Variable 3.5 mph - N/A Snow Light Snow
3:55 AM 9.7 °F 1.4 °F 5.0 °F 81% 29.50 in 5.0 mi Variable 4.6 mph - 0.00 in Snow Light Snow
3:59 AM 10.4 °F 2.2 °F 5.0 °F 79% 29.50 in 5.0 mi WSW 4.6 mph - N/A Snow Light Snow
4:09 AM 10.4 °F - 5.0 °F 79% 29.51 in 4.0 mi Calm Calm - N/A Snow Light Snow
4:33 AM 10.4 °F 4.0 °F 5.0 °F 79% 29.52 in 5.0 mi Variable 3.5 mph - N/A Snow Light Snow
4:46 AM 10.4 °F 0.8 °F 5.0 °F 79% 29.53 in 5.0 mi West 5.8 mph - N/A Snow Light Snow
4:49 AM 10.4 °F 4.0 °F 5.0 °F 79% 29.53 in 5.0 mi Variable 3.5 mph - N/A Snow Light Snow
4:55 AM 9.5 °F 3.0 °F 4.8 °F 81% 29.54 in 5.0 mi Variable 3.5 mph - 0.00 in Snow Light Snow
4:59 AM 8.6 °F - 5.0 °F 85% 29.54 in 6.0 mi Calm Calm - N/A Snow Light Snow
5:06 AM 10.4 °F 4.0 °F 5.0 °F 79% 29.55 in 9.0 mi Variable 3.5 mph - N/A Snow Light Snow
5:12 AM 8.6 °F - 5.0 °F 85% 29.55 in 8.0 mi Calm Calm - N/A Snow Light Snow
5:14 AM 8.6 °F - 5.0 °F 85% 29.55 in 8.0 mi Calm Calm - N/A Snow Light Snow
5:15 AM 8.6 °F - 5.0 °F 85% 29.55 in 8.0 mi Calm Calm - N/A Snow Light Snow
5:24 AM 10.4 °F - 5.0 °F 79% 29.56 in 10.0 mi Calm Calm - N/A Snow Light Snow
5:37 AM 8.6 °F - 5.0 °F 85% 29.56 in 10.0 mi Calm Calm - N/A Snow Light Snow
5:49 AM 10.4 °F - 5.0 °F 79% 29.57 in 4.0 mi Calm Calm - N/A Snow Light Snow
5:51 AM 10.4 °F - 5.0 °F 79% 29.57 in 4.0 mi Calm Calm - N/A Snow Light Snow
5:53 AM 10.4 °F - 5.0 °F 79% 29.57 in 4.0 mi Calm Calm - N/A Snow Light Snow
5:55 AM 9.5 °F - 5.4 °F 83% 29.57 in 4.0 mi Calm Calm - 0.00 in Snow Light Snow
6:03 AM 10.4 °F - 5.0 °F 79% 29.58 in 4.0 mi Calm Calm - N/A Snow Light Snow
6:11 AM 10.4 °F - 5.0 °F 79% 29.58 in 5.0 mi Calm Calm - N/A Snow Light Snow
6:16 AM 10.4 °F - 5.0 °F 79% 29.58 in 5.0 mi Calm Calm - N/A Snow Light Snow
6:19 AM 10.4 °F - 5.0 °F 79% 29.59 in 4.0 mi Calm Calm - N/A Snow Light Snow
6:21 AM 10.4 °F - 5.0 °F 79% 29.59 in 4.0 mi Calm Calm - N/A Snow Light Snow
6:24 AM 10.4 °F - 5.0 °F 79% 29.59 in 4.0 mi Calm Calm - N/A Snow Light Snow
6:28 AM 10.4 °F - 5.0 °F 79% 29.59 in 4.0 mi Calm Calm - N/A Snow Light Snow
6:55 AM 9.7 °F -0.1 °F 5.9 °F 85% 29.59 in 3.0 mi SSE 5.8 mph - 0.00 in Snow Light Snow
7:14 AM 10.4 °F 2.2 °F 5.0 °F 79% 29.60 in 3.0 mi SE 4.6 mph - N/A Snow Light Snow
7:15 AM 10.4 °F 2.2 °F 5.0 °F 79% 29.60 in 2.5 mi SE 4.6 mph - N/A Snow Light Snow
7:18 AM 10.4 °F 0.8 °F 6.8 °F 85% 29.60 in 2.0 mi SE 5.8 mph - N/A Snow Light Snow
7:19 AM 10.4 °F 0.8 °F 6.8 °F 85% 29.60 in 2.0 mi Variable 5.8 mph - N/A Snow Light Snow
7:21 AM 10.4 °F 2.2 °F 6.8 °F 85% 29.60 in 1.8 mi Variable 4.6 mph - N/A Snow Light Snow
7:45 AM 10.4 °F 2.2 °F 5.0 °F 79% 29.60 in 2.0 mi Variable 4.6 mph - N/A Snow Light Snow
7:49 AM 10.4 °F 0.8 °F 5.0 °F 79% 29.60 in 2.5 mi SSE 5.8 mph - N/A Snow Light Snow
7:51 AM 10.4 °F 0.8 °F 5.0 °F 79% 29.60 in 2.5 mi Variable 5.8 mph - N/A Snow Light Snow
7:55 AM 9.5 °F 1.2 °F 5.7 °F 85% 29.61 in 2.5 mi SSE 4.6 mph - 0.00 in Snow Light Snow
8:02 AM 10.4 °F 2.2 °F 5.0 °F 79% 29.61 in 2.5 mi Variable 4.6 mph - N/A Snow Light Snow
8:10 AM 8.6 °F 0.1 °F 5.0 °F 85% 29.62 in 2.5 mi SSE 4.6 mph - N/A Snow Light Snow
8:15 AM 8.6 °F -1.3 °F 5.0 °F 85% 29.61 in 3.0 mi SSE 5.8 mph - N/A Snow Light Snow
8:29 AM 8.6 °F 0.1 °F 5.0 °F 85% 29.62 in 4.0 mi Variable 4.6 mph - N/A Snow Light Snow
8:55 AM 9.7 °F 1.4 °F 5.7 °F 84% 29.63 in 3.0 mi Variable 4.6 mph - 0.00 in Snow Light Snow
8:56 AM 10.4 °F 2.2 °F 5.0 °F 79% 29.63 in 2.5 mi Variable 4.6 mph - N/A Snow Light Snow
9:01 AM 10.4 °F 0.8 °F 5.0 °F 79% 29.63 in 2.0 mi Variable 5.8 mph - N/A Snow Light Snow
9:08 AM 10.4 °F 0.8 °F 6.8 °F 85% 29.63 in 2.0 mi Variable 5.8 mph - N/A Snow Light Snow
9:09 AM 10.4 °F 0.8 °F 6.8 °F 85% 29.63 in 1.8 mi Variable 5.8 mph - N/A Snow Light Snow
9:22 AM 10.4 °F 2.2 °F 6.8 °F 85% 29.64 in 1.8 mi Variable 4.6 mph - N/A Snow Light Snow
9:29 AM 10.4 °F 2.2 °F 6.8 °F 85% 29.64 in 1.2 mi Variable 4.6 mph - N/A Snow Light Snow
9:32 AM 10.4 °F 2.2 °F 6.8 °F 85% 29.64 in 1.0 mi Variable 4.6 mph - N/A Snow Light Snow
9:36 AM 10.4 °F 2.2 °F 6.8 °F 85% 29.64 in 1.0 mi Variable 4.6 mph - N/A Snow Light Snow
9:54 AM 10.4 °F 4.0 °F 6.8 °F 85% 29.65 in 1.0 mi Variable 3.5 mph - N/A Snow Light Snow
9:59 AM 10.4 °F 4.0 °F 6.8 °F 85% 29.65 in 1.2 mi Variable 3.5 mph - N/A Snow Light Snow
10:01 AM 10.4 °F 4.0 °F 6.8 °F 85% 29.65 in 1.2 mi Variable 3.5 mph - N/A Snow Light Snow
10:13 AM 10.4 °F 2.2 °F 6.8 °F 85% 29.65 in 1.5 mi Variable 4.6 mph - N/A Snow Light Snow
10:19 AM 10.4 °F 2.2 °F 6.8 °F 85% 29.66 in 2.0 mi Variable 4.6 mph - N/A Snow Light Snow
10:21 AM 10.4 °F 2.2 °F 6.8 °F 85% 29.66 in 2.5 mi Variable 4.6 mph - N/A Snow Light Snow
10:23 AM 10.4 °F 2.2 °F 6.8 °F 85% 29.66 in 3.0 mi Variable 4.6 mph - N/A Snow Light Snow
10:25 AM 10.4 °F 2.2 °F 6.8 °F 85% 29.66 in 3.0 mi SSE 4.6 mph - N/A Snow Light Snow
10:29 AM 10.4 °F 2.2 °F 6.8 °F 85% 29.66 in 4.0 mi Variable 4.6 mph - N/A Snow Light Snow
10:40 AM 10.4 °F 0.8 °F 6.8 °F 85% 29.67 in 7.0 mi Variable 5.8 mph - N/A Snow Light Snow
10:55 AM 11.1 °F 4.9 °F 7.3 °F 85% 29.67 in 9.0 mi Variable 3.5 mph - 0.00 in   Overcast
11:02 AM 12.2 °F - 6.8 °F 79% 29.63 in 8.0 mi Variable 2.3 mph - N/A Snow Light Snow
11:55 AM 12.7 °F 6.7 °F 8.1 °F 82% 29.70 in 9.0 mi Variable 3.5 mph - 0.00 in Snow Light Snow
12:55 PM 13.3 °F 4.2 °F 8.2 °F 80% 29.71 in 10.0 mi Variable 5.8 mph - 0.00 in Snow Light Snow
1:55 PM 13.3 °F 2.0 °F 7.7 °F 78% 29.74 in 3.0 mi West 8.1 mph - 0.00 in Snow Light Snow
2:18 PM 12.2 °F 1.7 °F 8.6 °F 85% 29.70 in 2.0 mi Variable 6.9 mph - N/A Snow Light Snow
2:55 PM 12.2 °F 1.7 °F 8.6 °F 85% 29.79 in 2.0 mi Variable 6.9 mph - N/A Snow Light Snow
3:02 PM 12.2 °F 2.9 °F 8.6 °F 85% 29.75 in 2.0 mi Variable 5.8 mph - N/A Snow Light Snow
3:11 PM 12.2 °F 4.3 °F 8.6 °F 85% 29.76 in 3.0 mi Variable 4.6 mph - N/A Snow Light Snow
3:25 PM 12.2 °F 2.9 °F 6.8 °F 79% 29.76 in 5.0 mi Variable 5.8 mph - N/A Snow Light Snow
3:51 PM 12.2 °F - 8.6 °F 85% 29.77 in 2.5 mi Calm Calm - N/A Snow Light Snow
3:54 PM 12.2 °F - 8.6 °F 85% 29.77 in 1.8 mi Calm Calm - N/A Snow Light Snow
3:55 PM 12.2 °F 6.1 °F 8.6 °F 85% 29.82 in 1.5 mi Variable 3.5 mph - N/A Snow Light Snow
4:21 PM 12.2 °F 4.3 °F 8.6 °F 85% 29.78 in 2.0 mi Variable 4.6 mph - N/A Snow Light Snow
4:28 PM 12.2 °F 4.3 °F 6.8 °F 79% 29.79 in 3.0 mi Variable 4.6 mph - N/A Snow Light Snow
4:47 PM 12.2 °F - 6.8 °F 79% 29.75 in 6.0 mi Variable 2.3 mph - N/A Snow Light Snow
4:55 PM 11.3 °F 5.1 °F 6.4 °F 81% 29.80 in 7.0 mi Variable 3.5 mph - 0.00 in Snow Light Snow
5:55 PM 10.9 °F - 6.8 °F 83% 29.82 in 6.0 mi Calm Calm - 0.00 in Snow Light Snow
6:04 PM 10.4 °F - 6.8 °F 85% 29.83 in 6.0 mi Calm Calm - N/A Snow Light Snow
6:06 PM 10.4 °F - 6.8 °F 85% 29.83 in 5.0 mi Calm Calm - N/A Snow Light Snow
6:07 PM 10.4 °F - 6.8 °F 85% 29.83 in 5.0 mi Calm Calm - N/A Snow Light Snow
6:10 PM 10.4 °F - 6.8 °F 85% 29.83 in 4.0 mi Calm Calm - N/A Snow Light Snow
6:15 PM 10.4 °F - 6.8 °F 85% 29.83 in 2.5 mi Calm Calm - N/A Snow Light Snow
6:19 PM 10.4 °F - 6.8 °F 85% 29.83 in 2.0 mi Calm Calm - N/A Snow Light Snow
6:28 PM 10.4 °F - 6.8 °F 85% 29.84 in 2.0 mi Calm Calm - N/A Snow Light Snow
6:30 PM 10.4 °F - 6.8 °F 85% 29.84 in 2.5 mi Calm Calm - N/A Snow Light Snow
6:32 PM 10.4 °F - 6.8 °F 85% 29.84 in 3.0 mi Calm Calm - N/A Snow Light Snow
6:47 PM 12.2 °F - 6.8 °F 79% 29.85 in 4.0 mi Calm Calm - N/A Snow Light Snow
6:53 PM 12.2 °F - 6.8 °F 79% 29.85 in 5.0 mi Calm Calm - N/A Snow Light Snow
6:55 PM 11.3 °F 5.1 °F 7.5 °F 85% 29.85 in 5.0 mi Variable 3.5 mph - 0.01 in Snow Light Snow
7:05 PM 12.2 °F - 6.8 °F 79% 29.86 in 4.0 mi Calm Calm - N/A Snow Light Snow
7:08 PM 12.2 °F 6.1 °F 6.8 °F 79% 29.86 in 4.0 mi Variable 3.5 mph - N/A Snow Light Snow
7:11 PM 12.2 °F 4.3 °F 6.8 °F 79% 29.86 in 4.0 mi Variable 4.6 mph - N/A Snow Light Snow
7:13 PM 12.2 °F 6.1 °F 6.8 °F 79% 29.86 in 4.0 mi Variable 3.5 mph - N/A Snow Light Snow
7:14 PM 12.2 °F 6.1 °F 6.8 °F 79% 29.86 in 5.0 mi Variable 3.5 mph - N/A Snow Light Snow
7:19 PM 10.4 °F - 6.8 °F 85% 29.86 in 6.0 mi Calm Calm - N/A Snow Light Snow
7:22 PM 10.4 °F 2.2 °F 6.8 °F 85% 29.87 in 6.0 mi Variable 4.6 mph - N/A Snow Light Snow
7:23 PM 10.4 °F 2.2 °F 6.8 °F 85% 29.87 in 6.0 mi Variable 4.6 mph - N/A Snow Light Snow
7:24 PM 10.4 °F 4.0 °F 6.8 °F 85% 29.87 in 6.0 mi Variable 3.5 mph - N/A Snow Light Snow
7:34 PM 10.4 °F - 6.8 °F 85% 29.87 in 4.0 mi Calm Calm - N/A Snow Light Snow
7:38 PM 10.4 °F - 6.8 °F 85% 29.87 in 4.0 mi Calm Calm - N/A Snow Light Snow
7:47 PM 10.4 °F 4.0 °F 6.8 °F 85% 29.88 in 3.0 mi Variable 3.5 mph - N/A Snow Light Snow
7:52 PM 10.4 °F 4.0 °F 6.8 °F 85% 29.88 in 5.0 mi Variable 3.5 mph - N/A Snow Light Snow
7:55 PM 10.8 °F - 6.8 °F 84% 29.88 in 7.0 mi Calm Calm - 0.00 in Snow Light Snow
7:57 PM 10.4 °F 4.0 °F 6.8 °F 85% 29.88 in 8.0 mi Variable 3.5 mph - N/A Snow Light Snow
8:02 PM 10.4 °F 2.2 °F 6.8 °F 85% 29.88 in 6.0 mi Variable 4.6 mph - N/A Snow Light Snow
8:07 PM 10.4 °F - 6.8 °F 85% 29.89 in 6.0 mi Calm Calm - N/A Snow Light Snow
8:24 PM 10.4 °F - 5.0 °F 79% 29.90 in 8.0 mi Calm Calm - N/A Snow Light Snow
8:43 PM 8.6 °F 2.0 °F 5.0 °F 85% 29.90 in 7.0 mi Variable 3.5 mph - N/A Snow Light Snow
8:55 PM 9.0 °F 2.4 °F 5.2 °F 85% 29.91 in 10.0 mi Variable 3.5 mph - 0.00 in Snow Light Snow
9:29 PM 8.6 °F - 5.0 °F 85% 29.92 in 10.0 mi Calm Calm - N/A   Overcast
9:37 PM 6.8 °F - 3.2 °F 85% 29.93 in 10.0 mi Calm Calm - N/A   Overcast
9:47 PM 6.8 °F - 3.2 °F 85% 29.93 in 10.0 mi Calm Calm - N/A   Overcast
9:55 PM 6.4 °F - 2.8 °F 85% 29.94 in 10.0 mi Calm Calm - 0.00 in   Overcast
10:21 PM 6.8 °F - 3.2 °F 85% 29.95 in 10.0 mi Calm Calm - N/A   Overcast
10:22 PM 6.8 °F - 3.2 °F 85% 29.95 in 10.0 mi Calm Calm - N/A   Overcast
10:45 PM 6.8 °F - 3.2 °F 85% 29.96 in 10.0 mi Calm Calm - N/A   Overcast
10:55 PM 7.0 °F - 3.0 °F 84% 29.97 in 10.0 mi Calm Calm - N/A   Overcast
11:03 PM 6.8 °F - 3.2 °F 85% 29.97 in 10.0 mi Calm Calm - N/A   Overcast
11:11 PM 6.8 °F - 3.2 °F 85% 29.98 in 10.0 mi Calm Calm - N/A   Overcast
11:34 PM 6.8 °F - 3.2 °F 85% 29.99 in 10.0 mi Calm Calm - N/A   Overcast
11:40 PM 6.8 °F - 3.2 °F 85% 30.00 in 10.0 mi Calm Calm - N/A   Overcast
11:44 PM 6.8 °F - 3.2 °F 85% 30.00 in 10.0 mi Calm Calm - N/A   Overcast
11:50 PM 6.8 °F - 3.2 °F 85% 30.00 in 10.0 mi Calm Calm - N/A Snow Light Snow
11:55 PM 7.3 °F - 3.0 °F 82% 30.00 in 10.0 mi Calm Calm - 0.00 in Snow Light Snow